• In Deutschland
  • Länderverzeichnis
  • Für 7 Tage
  • Wassertemperatur
  • Satellitenkarten
  • Wetterkarte
  • Widgets
  • user-avatar
    Anmelden

    Stündliche Wetter Espelkamp

    Heute, 19 Februar, Montag

    Zeit Temperatur Niederschläge Wind Luftdruck Luftfeuchtigkeit
    00:00 -1°C° 0 mm 2 m/S 763 mmHg 82%
    01:00 -1°C° 0 mm 2 m/S 763 mmHg 83%
    02:00 -1°C° 0 mm 2 m/S 762 mmHg 82%
    03:00 -1°C° 0 mm 2 m/S 762 mmHg 81%
    04:00 -1°C° 0 mm 2 m/S 762 mmHg 79%
    05:00 -1°C° 0 mm 2 m/S 761 mmHg 78%
    06:00 -1°C° 0 mm 2 m/S 761 mmHg 77%
    07:00 -1°C° 0 mm 2 m/S 761 mmHg 76%
    08:00 +1°C° 0 mm 2 m/S 761 mmHg 73%
    09:00 +1°C° 0 mm 2 m/S 761 mmHg 69%
    10:00 +2°C° 0 mm 2 m/S 760 mmHg 66%
    11:00 +3°C° 0 mm 2 m/S 760 mmHg 62%
    12:00 +4°C° 0 mm 2 m/S 760 mmHg 58%
    13:00 +5°C° 0 mm 2 m/S 760 mmHg 54%
    14:00 +6°C° 0 mm 1 m/S 759 mmHg 55%
    15:00 +6°C° 0 mm 1 m/S 759 mmHg 55%
    16:00 +5°C° 0 mm 0 m/S 759 mmHg 56%
    17:00 +5°C° 0 mm 1 m/S 759 mmHg 60%
    18:00 +3°C° 0 mm 1 m/S 759 mmHg 65%
    19:00 +2°C° 0 mm 1 m/S 759 mmHg 70%
    20:00 +1°C° 0 mm 1 m/S 759 mmHg 71%
    21:00 +1°C° 0 mm 1 m/S 759 mmHg 72%
    22:00 +1°C° 0 mm 1 m/S 759 mmHg 74%
    23:00 +1°C° 0 mm 1 m/S 759 mmHg 75%

    Morgen, 20 Februar, Dienstag

    Zeit Temperatur Niederschläge Wind Luftdruck Luftfeuchtigkeit
    00:00 0°C° 0 mm 1 m/S 759 mmHg 77%
    01:00 0°C° 0 mm 1 m/S 759 mmHg 78%
    02:00 0°C° 0 mm 1 m/S 759 mmHg 79%
    03:00 0°C° 0 mm 1 m/S 759 mmHg 80%
    04:00 0°C° 0 mm 1 m/S 759 mmHg 81%
    05:00 -2°C° 0 mm 2 m/S 759 mmHg 81%
    06:00 -2°C° 0 mm 2 m/S 759 mmHg 82%
    07:00 -3°C° 0 mm 2 m/S 759 mmHg 83%
    08:00 -2°C° 0 mm 2 m/S 759 mmHg 77%
    09:00 -1°C° 0 mm 2 m/S 759 mmHg 72%
    10:00 +1°C° 0 mm 2 m/S 759 mmHg 67%
    11:00 +2°C° 0 mm 3 m/S 759 mmHg 62%
    12:00 +3°C° 0 mm 3 m/S 760 mmHg 57%
    13:00 +4°C° 0 mm 3 m/S 760 mmHg 52%
    14:00 +4°C° 0 mm 3 m/S 760 mmHg 53%
    15:00 +4°C° 0 mm 3 m/S 760 mmHg 54%
    16:00 +4°C° 0 mm 3 m/S 760 mmHg 55%
    17:00 +2°C° 0 mm 3 m/S 760 mmHg 61%
    18:00 +1°C° 0 mm 3 m/S 761 mmHg 68%
    19:00 -1°C° 0 mm 3 m/S 761 mmHg 74%
    20:00 -1°C° 0 mm 3 m/S 762 mmHg 76%
    21:00 -2°C° 0 mm 3 m/S 762 mmHg 78%
    22:00 -2°C° 0 mm 2 m/S 763 mmHg 80%
    23:00 -2°C° 0 mm 2 m/S 763 mmHg 81%

    übermorgen, 21 Februar, Mittwoch

    Zeit Temperatur Niederschläge Wind Luftdruck Luftfeuchtigkeit
    00:00 -3°C° 0 mm 2 m/S 763 mmHg 82%
    01:00 -3°C° 0 mm 2 m/S 764 mmHg 83%
    02:00 -3°C° 0 mm 2 m/S 764 mmHg 84%
    03:00 -3°C° 0 mm 2 m/S 764 mmHg 84%
    04:00 -3°C° 0 mm 2 m/S 764 mmHg 84%
    05:00 -3°C° 0 mm 2 m/S 764 mmHg 84%
    06:00 -3°C° 0 mm 2 m/S 764 mmHg 84%
    07:00 -4°C° 0 mm 2 m/S 764 mmHg 85%
    08:00 -3°C° 0 mm 2 m/S 764 mmHg 78%
    09:00 -2°C° 0 mm 2 m/S 764 mmHg 72%
    10:00 -1°C° 0 mm 2 m/S 765 mmHg 66%
    11:00 +2°C° 0 mm 2 m/S 764 mmHg 60%
    12:00 +3°C° 0 mm 2 m/S 764 mmHg 55%
    13:00 +4°C° 0 mm 2 m/S 764 mmHg 50%
    14:00 +4°C° 0 mm 2 m/S 763 mmHg 51%
    15:00 +3°C° 0 mm 3 m/S 763 mmHg 51%
    16:00 +3°C° 0 mm 3 m/S 763 mmHg 52%
    17:00 +1°C° 0 mm 3 m/S 763 mmHg 58%
    18:00 +1°C° 0 mm 2 m/S 763 mmHg 65%
    19:00 -1°C° 0 mm 2 m/S 763 mmHg 71%
    20:00 -2°C° 0 mm 2 m/S 763 mmHg 73%
    21:00 -2°C° 0 mm 2 m/S 764 mmHg 74%
    22:00 -2°C° 0 mm 3 m/S 764 mmHg 76%
    23:00 -4°C° 0 mm 3 m/S 764 mmHg 78%

    22 Februar, Donnerstag

    Zeit Temperatur Niederschläge Wind Luftdruck Luftfeuchtigkeit
    00:00 -4°C° 0 mm 3 m/S 764 mmHg 79%
    01:00 -4°C° 0 mm 3 m/S 764 mmHg 80%
    02:00 -4°C° 0 mm 3 m/S 764 mmHg 81%
    03:00 -4°C° 0 mm 3 m/S 764 mmHg 82%
    04:00 -4°C° 0 mm 3 m/S 764 mmHg 83%
    05:00 -4°C° 0 mm 3 m/S 764 mmHg 82%
    06:00 -4°C° 0 mm 3 m/S 764 mmHg 82%
    07:00 -4°C° 0 mm 3 m/S 764 mmHg 81%
    08:00 -2°C° 0 mm 3 m/S 764 mmHg 73%
    09:00 -3°C° 0 mm 4 m/S 764 mmHg 65%
    10:00 -2°C° 0 mm 4 m/S 764 mmHg 57%
    11:00 -1°C° 0 mm 5 m/S 764 mmHg 54%
    12:00 0°C° 0 mm 5 m/S 764 mmHg 50%
    13:00 +1°C° 0 mm 5 m/S 764 mmHg 47%
    14:00 +1°C° 0 mm 5 m/S 763 mmHg 49%
    15:00 +1°C° 0 mm 6 m/S 763 mmHg 51%
    16:00 +1°C° 0 mm 6 m/S 763 mmHg 53%
    17:00 0°C° 0 mm 5 m/S 763 mmHg 59%
    18:00 -1°C° 0 mm 4 m/S 763 mmHg 66%
    19:00 -2°C° 0 mm 4 m/S 763 mmHg 72%
    20:00 -3°C° 0 mm 4 m/S 763 mmHg 75%
    21:00 -3°C° 0 mm 4 m/S 764 mmHg 77%
    22:00 -3°C° 0 mm 4 m/S 764 mmHg 79%
    23:00 -3°C° 0 mm 4 m/S 764 mmHg 80%

    23 Februar, Freitag

    Zeit Temperatur Niederschläge Wind Luftdruck Luftfeuchtigkeit
    00:00 -4°C° 0 mm 4 m/S 764 mmHg 81%
    01:00 -4°C° 0 mm 4 m/S 764 mmHg 82%
    02:00 -4°C° 0 mm 4 m/S 764 mmHg 81%
    03:00 -4°C° 0 mm 4 m/S 764 mmHg 80%
    04:00 -5°C° 0 mm 4 m/S 763 mmHg 80%
    05:00 -6°C° 0 mm 5 m/S 764 mmHg 78%
    06:00 -6°C° 0 mm 5 m/S 764 mmHg 76%
    07:00 -6°C° 0 mm 5 m/S 764 mmHg 74%
    08:00 -5°C° 0 mm 6 m/S 764 mmHg 68%
    09:00 -5°C° 0 mm 6 m/S 765 mmHg 62%
    10:00 -4°C° 0 mm 7 m/S 765 mmHg 56%
    11:00 -3°C° 0 mm 7 m/S 765 mmHg 53%
    12:00 -2°C° 0 mm 7 m/S 765 mmHg 50%
    13:00 -2°C° 0 mm 7 m/S 765 mmHg 47%
    14:00 -2°C° 0 mm 7 m/S 765 mmHg 47%
    15:00 -2°C° 0 mm 7 m/S 764 mmHg 47%
    16:00 -2°C° 0 mm 6 m/S 764 mmHg 47%
    17:00 -3°C° 0 mm 6 m/S 765 mmHg 50%
    18:00 -4°C° 0 mm 5 m/S 765 mmHg 53%
    19:00 -5°C° 0 mm 5 m/S 765 mmHg 55%
    20:00 -5°C° 0 mm 5 m/S 766 mmHg 55%
    21:00 -5°C° 0 mm 5 m/S 766 mmHg 55%
    22:00 -5°C° 0 mm 5 m/S 767 mmHg 55%
    23:00 -6°C° 0 mm 5 m/S 767 mmHg 55%

    24 Februar, Samstag

    Zeit Temperatur Niederschläge Wind Luftdruck Luftfeuchtigkeit
    00:00 -6°C° 0 mm 5 m/S 767 mmHg 54%
    01:00 -6°C° 0 mm 5 m/S 767 mmHg 54%
    02:00 -6°C° 0 mm 5 m/S 768 mmHg 54%
    03:00 -6°C° 0 mm 5 m/S 768 mmHg 53%
    04:00 -6°C° 0 mm 5 m/S 768 mmHg 53%
    05:00 -6°C° 0 mm 5 m/S 768 mmHg 54%
    06:00 -7°C° 0 mm 4 m/S 768 mmHg 55%
    07:00 -7°C° 0 mm 4 m/S 769 mmHg 56%
    08:00 -6°C° 0 mm 5 m/S 769 mmHg 54%
    09:00 -5°C° 0 mm 5 m/S 770 mmHg 51%
    10:00 -4°C° 0 mm 5 m/S 770 mmHg 49%
    11:00 -4°C° 0 mm 5 m/S 770 mmHg 46%
    12:00 -2°C° 0 mm 5 m/S 770 mmHg 43%
    13:00 -1°C° 0 mm 5 m/S 770 mmHg 41%
    14:00 -1°C° 0 mm 5 m/S 769 mmHg 42%
    15:00 -1°C° 0 mm 5 m/S 769 mmHg 43%
    16:00 -1°C° 0 mm 5 m/S 769 mmHg 44%
    17:00 -2°C° 0 mm 4 m/S 769 mmHg 49%
    18:00 -3°C° 0 mm 4 m/S 769 mmHg 54%
    19:00 -4°C° 0 mm 3 m/S 769 mmHg 58%
    20:00 -4°C° 0 mm 4 m/S 769 mmHg 60%
    21:00 -5°C° 0 mm 4 m/S 769 mmHg 63%
    22:00 -5°C° 0 mm 4 m/S 769 mmHg 65%
    23:00 -5°C° 0 mm 4 m/S 769 mmHg 63%
    Mehr zeigen